When you browse on this site, cookies collect data to enhance your experience and personalize the content and advertising you see.
Visit our Privacy Policy to learn more. By continuing to use the site, you agree to this use of cookies and data.
  • In Hungary
  • List of Countries
  • For 7 days
  • Water Temperature
  • Satellite Maps
  • Weather Map
  • News
  • Weather Widgets
  • user-avatar
    Login

    Hourly Weather Encamp

    Today, 24 April, Wednesday

    Time Temperature Precipitation Wind Pressure Humidity
    00:00 +2°C° 0 mm 3 mps 611 mmHg 92%
    01:00 +2°C° 0.8 mm 3 mps 611 mmHg 93%
    02:00 +1°C° 0.8 mm 3 mps 611 mmHg 93%
    03:00 +1°C° 0.8 mm 3 mps 611 mmHg 94%
    04:00 0°C° 0.3 mm 3 mps 611 mmHg 92%
    05:00 0°C° 0.3 mm 3 mps 611 mmHg 91%
    06:00 0°C° 0 mm 3 mps 612 mmHg 92%
    07:00 +1°C° 0.1 mm 3 mps 612 mmHg 85%
    08:00 +1°C° 0.1 mm 4 mps 613 mmHg 78%
    09:00 +1°C° 0.1 mm 4 mps 613 mmHg 72%
    10:00 +2°C° 0.1 mm 5 mps 614 mmHg 71%
    11:00 +2°C° 0.1 mm 5 mps 614 mmHg 71%
    12:00 +2°C° 0.1 mm 5 mps 614 mmHg 70%
    13:00 +2°C° 0 mm 5 mps 614 mmHg 69%
    14:00 +3°C° 0 mm 5 mps 615 mmHg 67%
    15:00 +3°C° 0 mm 5 mps 615 mmHg 65%
    16:00 +3°C° 0 mm 5 mps 615 mmHg 70%
    17:00 +3°C° 0 mm 4 mps 614 mmHg 74%
    18:00 +1°C° 0 mm 4 mps 614 mmHg 79%
    19:00 +1°C° 0.3 mm 4 mps 615 mmHg 83%
    20:00 +1°C° 0.3 mm 4 mps 615 mmHg 87%
    21:00 +1°C° 0.3 mm 5 mps 615 mmHg 91%
    22:00 +1°C° 1.2 mm 5 mps 615 mmHg 91%
    23:00 +1°C° 1.2 mm 5 mps 615 mmHg 90%

    Tomorrow, 25 April, Thursday

    Time Temperature Precipitation Wind Pressure Humidity
    00:00 +1°C° 1.2 mm 5 mps 615 mmHg 90%
    01:00 +1°C° 2 mm 5 mps 615 mmHg 91%
    02:00 +1°C° 2 mm 5 mps 615 mmHg 92%
    03:00 +1°C° 2 mm 4 mps 615 mmHg 93%
    04:00 +1°C° 1.6 mm 4 mps 615 mmHg 93%
    05:00 +1°C° 1.6 mm 4 mps 615 mmHg 93%
    06:00 +3°C° 1.6 mm 4 mps 615 mmHg 93%
    07:00 +3°C° 2.6 mm 3 mps 615 mmHg 94%
    08:00 +3°C° 2.6 mm 3 mps 616 mmHg 95%
    09:00 +2°C° 2.6 mm 3 mps 616 mmHg 96%
    10:00 +3°C° 0.9 mm 3 mps 616 mmHg 92%
    11:00 +3°C° 0.9 mm 4 mps 616 mmHg 89%
    12:00 +4°C° 0.9 mm 4 mps 617 mmHg 86%
    13:00 +4°C° 0.1 mm 4 mps 617 mmHg 84%
    14:00 +4°C° 0.1 mm 4 mps 617 mmHg 82%
    15:00 +4°C° 0.1 mm 4 mps 617 mmHg 81%
    16:00 +3°C° 0.5 mm 3 mps 617 mmHg 83%
    17:00 +4°C° 0.5 mm 2 mps 617 mmHg 86%
    18:00 +3°C° 0.5 mm 2 mps 617 mmHg 88%
    19:00 +1°C° 0.2 mm 2 mps 617 mmHg 89%
    20:00 -1°C° 0.2 mm 2 mps 617 mmHg 90%
    21:00 -1°C° 0.2 mm 1 mps 617 mmHg 92%
    22:00 -1°C° 0 mm 1 mps 617 mmHg 89%
    23:00 -2°C° 0 mm 1 mps 617 mmHg 86%

    Day after tomorrow, 26 April, Friday

    Time Temperature Precipitation Wind Pressure Humidity
    00:00 -2°C° 0 mm 1 mps 618 mmHg 83%
    01:00 -2°C° 0 mm 1 mps 618 mmHg 82%
    02:00 -2°C° 0 mm 1 mps 618 mmHg 82%
    03:00 -3°C° 0 mm 1 mps 619 mmHg 81%
    04:00 -2°C° 0 mm 1 mps 619 mmHg 83%
    05:00 -1°C° 0 mm 1 mps 620 mmHg 84%
    06:00 0°C° 0 mm 1 mps 621 mmHg 86%
    07:00 +2°C° 0 mm 1 mps 622 mmHg 80%
    08:00 +4°C° 0 mm 1 mps 624 mmHg 74%
    09:00 +5°C° 0 mm 2 mps 625 mmHg 68%
    10:00 +5°C° 0.3 mm 2 mps 625 mmHg 71%
    11:00 +6°C° 0.3 mm 1 mps 625 mmHg 74%
    12:00 +6°C° 0.3 mm 1 mps 625 mmHg 77%
    13:00 +6°C° 0.2 mm 1 mps 625 mmHg 78%
    14:00 +5°C° 0.2 mm 2 mps 625 mmHg 78%
    15:00 +6°C° 0.2 mm 2 mps 625 mmHg 79%
    16:00 +5°C° 0.1 mm 2 mps 625 mmHg 82%
    17:00 +4°C° 0.1 mm 2 mps 625 mmHg 86%
    18:00 +4°C° 0.1 mm 2 mps 625 mmHg 90%
    19:00 +3°C° 0 mm 2 mps 626 mmHg 92%
    20:00 +2°C° 0 mm 2 mps 626 mmHg 93%
    21:00 +1°C° 0 mm 2 mps 626 mmHg 95%
    22:00 +1°C° 0 mm 2 mps 626 mmHg 95%
    23:00 +1°C° 0 mm 1 mps 625 mmHg 94%

    27 April, Saturday

    Time Temperature Precipitation Wind Pressure Humidity
    00:00 0°C° 0 mm 1 mps 625 mmHg 93%
    01:00 0°C° 0 mm 1 mps 625 mmHg 91%
    02:00 -3°C° 0 mm 2 mps 625 mmHg 89%
    03:00 -3°C° 0 mm 2 mps 625 mmHg 86%
    04:00 -2°C° 0 mm 2 mps 625 mmHg 83%
    05:00 -2°C° 0 mm 2 mps 625 mmHg 80%
    06:00 -1°C° 0 mm 2 mps 625 mmHg 76%
    07:00 +2°C° 0 mm 2 mps 626 mmHg 77%
    08:00 +4°C° 0 mm 2 mps 627 mmHg 78%
    09:00 +6°C° 0 mm 2 mps 628 mmHg 78%
    10:00 +7°C° 0 mm 2 mps 628 mmHg 75%
    11:00 +8°C° 0 mm 2 mps 628 mmHg 71%
    12:00 +9°C° 0 mm 2 mps 629 mmHg 67%
    13:00 +9°C° 0 mm 2 mps 629 mmHg 67%
    14:00 +9°C° 0 mm 2 mps 628 mmHg 67%
    15:00 +9°C° 0 mm 2 mps 628 mmHg 68%
    16:00 +8°C° 0 mm 2 mps 628 mmHg 72%
    17:00 +6°C° 0 mm 2 mps 627 mmHg 77%
    18:00 +4°C° 0 mm 3 mps 627 mmHg 82%
    19:00 +3°C° 0 mm 2 mps 627 mmHg 85%
    20:00 +1°C° 0 mm 2 mps 626 mmHg 89%
    21:00 -1°C° 0 mm 2 mps 626 mmHg 92%
    22:00 -2°C° 0 mm 2 mps 626 mmHg 88%
    23:00 -3°C° 0 mm 2 mps 625 mmHg 84%

    28 April, Sunday

    Time Temperature Precipitation Wind Pressure Humidity
    00:00 -3°C° 0 mm 2 mps 625 mmHg 80%
    01:00 -3°C° 0 mm 2 mps 625 mmHg 80%
    02:00 -4°C° 0 mm 2 mps 625 mmHg 80%
    03:00 -4°C° 0 mm 2 mps 624 mmHg 79%
    04:00 -3°C° 0 mm 2 mps 625 mmHg 79%
    05:00 -3°C° 0 mm 2 mps 625 mmHg 79%
    06:00 -2°C° 0 mm 3 mps 625 mmHg 79%
    07:00 0°C° 0 mm 3 mps 626 mmHg 72%
    08:00 +3°C° 0 mm 3 mps 627 mmHg 64%
    09:00 +5°C° 0 mm 3 mps 628 mmHg 56%
    10:00 +7°C° 0 mm 2 mps 628 mmHg 53%
    11:00 +8°C° 0 mm 2 mps 628 mmHg 50%
    12:00 +10°C° 0 mm 2 mps 628 mmHg 46%
    13:00 +10°C° 0 mm 2 mps 628 mmHg 48%
    14:00 +10°C° 0 mm 2 mps 627 mmHg 49%
    15:00 +10°C° 0 mm 3 mps 627 mmHg 50%
    16:00 +8°C° 0 mm 2 mps 626 mmHg 58%
    17:00 +7°C° 0 mm 2 mps 626 mmHg 65%
    18:00 +5°C° 0 mm 2 mps 625 mmHg 73%
    19:00 +4°C° 0 mm 2 mps 625 mmHg 78%
    20:00 +3°C° 0 mm 1 mps 624 mmHg 84%
    21:00 +1°C° 0 mm 1 mps 624 mmHg 89%
    22:00 +1°C° 0 mm 1 mps 624 mmHg 84%
    23:00 +1°C° 0 mm 1 mps 624 mmHg 79%

    29 April, Monday

    Time Temperature Precipitation Wind Pressure Humidity
    00:00 +1°C° 0 mm 1 mps 623 mmHg 74%
    01:00 +1°C° 0 mm 1 mps 623 mmHg 70%
    02:00 +1°C° 0 mm 1 mps 623 mmHg 67%
    03:00 +1°C° 0 mm 1 mps 622 mmHg 63%
    04:00 +2°C° 0 mm 1 mps 623 mmHg 59%
    05:00 +3°C° 0 mm 1 mps 623 mmHg 56%
    06:00 +4°C° 0 mm 1 mps 623 mmHg 52%
    07:00 +6°C° 0 mm 1 mps 624 mmHg 48%
    08:00 +9°C° 0 mm 1 mps 625 mmHg 43%
    09:00 +12°C° 0 mm 1 mps 625 mmHg 39%
    10:00 +13°C° 0 mm 1 mps 625 mmHg 39%
    11:00 +14°C° 0 mm 1 mps 625 mmHg 39%
    12:00 +15°C° 0 mm 1 mps 625 mmHg 39%
    13:00 +15°C° 0 mm 1 mps 625 mmHg 41%
    14:00 +15°C° 0 mm 1 mps 624 mmHg 43%
    15:00 +14°C° 0 mm 1 mps 624 mmHg 46%
    16:00 +13°C° 0 mm 1 mps 623 mmHg 55%
    17:00 +11°C° 0 mm 1 mps 622 mmHg 64%
    18:00 +10°C° 0 mm 1 mps 622 mmHg 73%
    19:00 +9°C° 0 mm 1 mps 621 mmHg 80%
    20:00 +7°C° 0 mm 1 mps 621 mmHg 87%
    21:00 +6°C° 0 mm 1 mps 621 mmHg 94%
    22:00 +6°C° 0 mm 1 mps 620 mmHg 95%
    23:00 +6°C° 0 mm 1 mps 620 mmHg 95%
    Show more